Storm Lake, IA

12:08 AM CST on February 26, 2017 (GMT -0600)
Storm Lake Municipal

Weather History for KSLB - December, 2013

Change the Weather History Date:

Monday, December 30, 2013

  Actual Average Record
Temperature  
Mean Temperature 4 °F -  
Max Temperature 14 °F 27 °F 60 °F (2004)
Min Temperature -5 °F 11 °F -13 °F (2014)
Degree Days  
Heating Degree Days 60    
Moisture  
Dew Point -1 °F    
Average Humidity 75    
Maximum Humidity 86    
Minimum Humidity 51    
Precipitation  
Precipitation 0.00 in - - ()
Sea Level Pressure  
Sea Level Pressure 30.11 in    
Wind  
Wind Speed 9 mph (SSW)    
Max Wind Speed 18 mph    
Max Gust Speed 22 mph    
Visibility 8 miles    
Events Rain , Snow    
Averages and records for this station are not official NWS values.
T = Trace of Precipitation, MM = Missing Value Source: NWS Daily Summary

Daily Weather History Graph

Daily Weather History Graph

Search for Another Location

Airport or City:

Trip Planner

Search our weather history database for the weather conditions in past years. The results will help you decide how hot, cold, wet, or windy it might be!

Date:

Astronomy

Dec. 30, 2013 Rise Set
Actual Time 7:50 AM CST 4:56 PM CST
Civil Twilight 7:18 AM CST 5:28 PM CST
Nautical Twilight 6:43 AM CST 6:04 PM CST
Astronomical Twilight 6:08 AM CST 6:38 PM CST
Moon 5:40 AM CST (12/30) 3:31 PM CST (12/30)
Length of Visible Light 10h 10m
Length of Day
9h 05m
Waning Crescent, 4% of the Moon is Illuminated
Dec 30
Waning Crescent
Jan 1
New
Jan 7
First Quarter
Jan 15
Full
Jan 23
Last Quarter

Hourly Weather History & Observations

Time (CST) Temp. Windchill Dew Point Humidity Pressure Visibility Wind Dir Wind Speed Gust Speed Precip Events Conditions
12:15 AM -5.8 °F - -14.8 °F 65% 30.21 in 10.0 mi Calm Calm - N/A   Clear
12:35 AM -5.8 °F -16.7 °F -14.8 °F 65% 30.21 in 10.0 mi SSW 4.6 mph - N/A   Clear
12:55 AM -4.0 °F -14.6 °F -14.8 °F 60% 30.20 in 10.0 mi South 4.6 mph - N/A   Clear
1:15 AM -4.0 °F -16.3 °F -14.8 °F 60% 30.19 in 10.0 mi South 5.8 mph - N/A   Partly Cloudy
1:35 AM -4.0 °F -17.8 °F -14.8 °F 60% 30.19 in 10.0 mi South 6.9 mph - N/A   Scattered Clouds
1:55 AM -4.0 °F -19.0 °F -13.0 °F 65% 30.18 in 10.0 mi South 8.1 mph - N/A   Mostly Cloudy
2:15 AM -2.2 °F -15.6 °F -13.0 °F 60% 30.17 in 10.0 mi SSE 6.9 mph - N/A   Overcast
2:35 AM -2.2 °F -18.0 °F -13.0 °F 60% 30.17 in 10.0 mi SSE 9.2 mph - N/A   Overcast
2:55 AM -2.2 °F -18.0 °F -13.0 °F 60% 30.17 in 10.0 mi SSE 9.2 mph - N/A   Overcast
3:15 AM -2.2 °F -18.0 °F -13.0 °F 60% 30.17 in 10.0 mi South 9.2 mph - N/A   Mostly Cloudy
3:35 AM -2.2 °F -18.9 °F -13.0 °F 60% 30.17 in 10.0 mi South 10.4 mph - N/A   Overcast
3:55 AM -2.2 °F -18.9 °F -13.0 °F 60% 30.16 in 10.0 mi South 10.4 mph - N/A   Mostly Cloudy
4:15 AM -2.2 °F -18.9 °F -13.0 °F 60% 30.14 in 10.0 mi SSE 10.4 mph - N/A   Overcast
4:35 AM -2.2 °F -18.9 °F -13.0 °F 60% 30.13 in 10.0 mi SSE 10.4 mph - N/A   Overcast
4:55 AM -0.4 °F -15.7 °F -11.2 °F 60% 30.12 in 10.0 mi SSE 9.2 mph - N/A   Overcast
5:15 AM -0.4 °F -17.6 °F -13.0 °F 55% 30.12 in 10.0 mi SSE 11.5 mph - N/A   Overcast
5:35 AM -0.4 °F -18.4 °F -11.2 °F 60% 30.11 in 10.0 mi SSE 12.7 mph - N/A   Overcast
5:55 AM 1.4 °F -16.9 °F -11.2 °F 56% 30.10 in 10.0 mi SSE 13.8 mph - N/A   Overcast
6:15 AM 1.4 °F -14.5 °F -11.2 °F 56% 30.09 in 10.0 mi SE 10.4 mph - N/A   Overcast
6:35 AM 3.2 °F -13.1 °F -11.2 °F 51% 30.09 in 10.0 mi SSE 11.5 mph - N/A   Overcast
6:55 AM 3.2 °F -14.6 °F -9.4 °F 56% 30.09 in 9.0 mi SSE 13.8 mph - N/A   Overcast
7:15 AM 3.2 °F -13.1 °F -7.6 °F 61% 30.10 in 6.0 mi SSE 11.5 mph - N/A   Haze
7:35 AM 3.2 °F -13.9 °F -5.8 °F 66% 30.10 in 3.0 mi SSE 12.7 mph - N/A Snow Light Snow
7:55 AM 5.0 °F -10.8 °F -4.0 °F 66% 30.11 in 3.0 mi South 11.5 mph - N/A   Haze
8:15 AM 5.0 °F -11.6 °F -2.2 °F 72% 30.10 in 0.8 mi SSE 12.7 mph - N/A Snow Light Snow
8:35 AM 5.0 °F -10.8 °F -0.4 °F 78% 30.09 in 1.0 mi SSE 11.5 mph - N/A Snow Light Snow
8:55 AM 5.0 °F -10.8 °F -0.4 °F 78% 30.09 in 0.8 mi SSE 11.5 mph - N/A Snow Light Snow
9:15 AM 5.0 °F -12.3 °F 1.4 °F 85% 30.09 in 0.8 mi SSE 13.8 mph - N/A Snow Light Snow
9:35 AM 6.8 °F -10.0 °F 1.4 °F 79% 30.09 in 0.8 mi SSE 13.8 mph - N/A Snow Light Snow
9:55 AM 6.8 °F -10.7 °F 3.2 °F 85% 30.09 in 3.0 mi SSE 15.0 mph - N/A Rain Light Freezing Rain
10:15 AM 8.6 °F -7.7 °F 3.2 °F 79% 30.08 in 6.0 mi SSE 13.8 mph 20.7 mph N/A   Haze
10:35 AM 8.6 °F -8.9 °F 3.2 °F 79% 30.07 in 3.0 mi SSE 16.1 mph - N/A   Haze
10:55 AM 8.6 °F -8.9 °F 5.0 °F 85% 30.07 in 5.0 mi South 16.1 mph - N/A   Haze
11:15 AM 10.4 °F -6.6 °F 5.0 °F 79% 30.07 in 10.0 mi South 16.1 mph - N/A   Overcast
11:35 AM 10.4 °F -7.7 °F 5.0 °F 79% 30.05 in 10.0 mi South 18.4 mph - N/A   Overcast
11:55 AM 10.4 °F -7.7 °F 5.0 °F 79% 30.03 in 10.0 mi South 18.4 mph - N/A   Overcast
12:15 PM 10.4 °F -6.0 °F 5.0 °F 79% 30.02 in 10.0 mi South 15.0 mph 21.9 mph N/A   Overcast
12:35 PM 12.2 °F -4.8 °F 5.0 °F 73% 30.00 in 10.0 mi South 17.3 mph - N/A   Overcast
12:55 PM 12.2 °F -4.3 °F 5.0 °F 73% 30.00 in 10.0 mi South 16.1 mph - N/A   Overcast
1:15 PM 12.2 °F -3.1 °F 5.0 °F 73% 30.00 in 3.0 mi South 13.8 mph - N/A Snow Light Snow
1:35 PM 12.2 °F -2.5 °F 6.8 °F 79% 30.00 in 1.0 mi SSW 12.7 mph - N/A Snow Light Snow
1:55 PM 12.2 °F -2.5 °F 6.8 °F 79% 30.00 in 1.0 mi SSW 12.7 mph - N/A Snow Light Snow
2:15 PM 12.2 °F -1.8 °F 8.6 °F 85% 29.99 in 1.0 mi South 11.5 mph - N/A Snow Light Snow
2:35 PM 14.0 °F 1.2 °F 8.6 °F 79% 29.99 in 1.8 mi South 10.4 mph - N/A Snow Light Snow
2:55 PM 14.0 °F 2.9 °F 8.6 °F 79% 30.00 in 4.0 mi South 8.1 mph - N/A Snow Light Snow
3:15 PM 14.0 °F 3.9 °F 8.6 °F 79% 30.01 in 5.0 mi South 6.9 mph - N/A Snow Light Snow
3:35 PM 14.0 °F - 10.4 °F 86% 30.03 in 8.0 mi Calm Calm - N/A Snow Light Snow
3:55 PM 14.0 °F - 10.4 °F 86% 30.03 in 7.0 mi Calm Calm - N/A Snow Light Snow
4:15 PM 14.0 °F - 10.4 °F 86% 30.03 in 8.0 mi Calm Calm - N/A Snow Light Snow
4:35 PM 14.0 °F - 10.4 °F 86% 30.04 in 10.0 mi Calm Calm - N/A   Overcast
4:55 PM 14.0 °F - 10.4 °F 86% 30.04 in - Calm Calm - N/A   Overcast
5:15 PM 14.0 °F 8.2 °F 10.4 °F 86% 30.06 in 10.0 mi NW 3.5 mph - N/A   Overcast
5:35 PM 14.0 °F 6.5 °F 10.4 °F 86% 30.07 in 10.0 mi North 4.6 mph - N/A   Overcast
5:55 PM 14.0 °F 5.1 °F 10.4 °F 86% 30.09 in 10.0 mi NNW 5.8 mph - N/A   Overcast
6:15 PM 14.0 °F 5.1 °F 10.4 °F 86% 30.09 in 10.0 mi North 5.8 mph - N/A Snow Light Snow
6:35 PM 10.4 °F -0.4 °F 6.8 °F 85% 30.10 in 10.0 mi NNW 6.9 mph - N/A   Mostly Cloudy
6:55 PM 10.4 °F -2.4 °F 6.8 °F 85% 30.12 in 10.0 mi NW 9.2 mph - N/A   Clear
7:15 PM 10.4 °F -3.3 °F 6.8 °F 85% 30.13 in 10.0 mi NW 10.4 mph - N/A   Clear
7:35 PM 8.6 °F -6.3 °F 5.0 °F 85% 30.14 in 10.0 mi WNW 11.5 mph - N/A   Scattered Clouds
7:55 PM 10.4 °F -4.8 °F 6.8 °F 85% 30.15 in 10.0 mi NW 12.7 mph - N/A Snow Light Snow
8:15 PM 10.4 °F -6.0 °F 6.8 °F 85% 30.16 in 10.0 mi NW 15.0 mph - N/A Snow Light Snow
8:35 PM 8.6 °F -7.7 °F 5.0 °F 85% 30.16 in 10.0 mi NW 13.8 mph - N/A   Mostly Cloudy
8:55 PM 6.8 °F -10.0 °F 3.2 °F 85% 30.16 in 10.0 mi NW 13.8 mph - N/A   Partly Cloudy
9:15 PM 6.8 °F -10.0 °F 3.2 °F 85% 30.16 in 10.0 mi NW 13.8 mph - N/A   Clear
9:35 PM 6.8 °F -8.6 °F 1.4 °F 79% 30.18 in 10.0 mi NW 11.5 mph - N/A   Clear
9:55 PM 5.0 °F -11.6 °F 1.4 °F 85% 30.19 in 10.0 mi NW 12.7 mph - N/A   Clear
10:15 PM 5.0 °F -13.0 °F 1.4 °F 85% 30.19 in 10.0 mi NW 15.0 mph - N/A   Clear
10:35 PM 5.0 °F -12.3 °F -0.4 °F 78% 30.19 in 10.0 mi NW 13.8 mph - N/A   Clear
10:55 PM 5.0 °F -12.3 °F -0.4 °F 78% 30.19 in 10.0 mi NW 13.8 mph - N/A   Clear
11:15 PM 5.0 °F -10.8 °F -0.4 °F 78% 30.19 in 10.0 mi NW 11.5 mph - N/A   Clear
11:35 PM 3.2 °F -12.2 °F -0.4 °F 85% 30.18 in 10.0 mi NW 10.4 mph - N/A   Clear
11:55 PM 3.2 °F -12.2 °F -0.4 °F 85% 30.18 in 10.0 mi NW 10.4 mph - N/A   Clear